Campo, CA

2:18 AM PST on November 24, 2017 (GMT -0800)
Campo

Weather History for KCZZ - April, 2014

Change the Weather History Date:

Wednesday, April 2, 2014

  Actual Average Record
Temperature  
Mean Temperature 47 °F 53 °F  
Max Temperature 52 °F 69 °F 87 °F (1959)
Min Temperature 42 °F 36 °F 23 °F (1976)
Degree Days  
Heating Degree Days 18 12  
Month to date heating degree days 35 24  
Since 1 July heating degree days 2277 2492  
Cooling Degree Days 0 0  
Month to date cooling degree days 0 0  
Year to date cooling degree days 0 0  
Moisture  
Dew Point 37 °F    
Average Humidity 70    
Maximum Humidity 89    
Minimum Humidity 50    
Precipitation  
Precipitation 0.15 in 0.05 in 0.80 in (1968)
Month to date precipitation 0.28 0.10  
Year to date precipitation 2.35 9.00  
Since 1 July precipitation 6.54  
Snow  
Snow 0.00 in - - ()
Year to date snowfall 0.0  
Snow Depth 0.00 in    
Sea Level Pressure  
Sea Level Pressure 29.92 in    
Wind  
Wind Speed 18 mph (WSW)    
Max Wind Speed 28 mph    
Max Gust Speed 36 mph    
T = Trace of Precipitation, MM = Missing Value Source: NWS Daily Summary

Daily Weather History Graph

Daily Weather History Graph

Search for Another Location

Airport or City:

Trip Planner

Search our weather history database for the weather conditions in past years. The results will help you decide how hot, cold, wet, or windy it might be!

Date:

Astronomy

Apr. 02, 2014 Rise Set
Actual Time 6:32 AM PDT 7:06 PM PDT
Civil Twilight 6:07 AM PDT 7:31 PM PDT
Nautical Twilight 5:38 AM PDT 8:00 PM PDT
Astronomical Twilight 5:09 AM PDT 8:30 PM PDT
Moon 8:29 AM PDT (4/2) 10:23 PM PDT (4/2)
Length of Visible Light 13h 23m
Length of Day
12h 34m
Waxing Crescent, 11% of the Moon is Illuminated
Apr 2
Waxing Crescent
Apr 7
First Quarter
Apr 15
Full
Apr 22
Last Quarter
Apr 28
New

Hourly Weather History & Observations

Time (PDT) Temp. Windchill Dew Point Humidity Pressure Visibility Wind Dir Wind Speed Gust Speed Precip Events Conditions
12:52 AM 43.0 °F 35.4 °F 39.0 °F 86% 29.88 in - WSW 16.1 mph 21.9 mph 0.01 in   Unknown
1:52 AM 43.0 °F 35.1 °F 39.9 °F 89% 29.88 in - WSW 17.3 mph 21.9 mph 0.03 in   Unknown
2:52 AM 43.0 °F 35.1 °F 39.0 °F 86% 29.86 in - WSW 17.3 mph - 0.01 in   Unknown
3:52 AM 43.0 °F 36.4 °F 39.0 °F 86% 29.85 in - WSW 12.7 mph - N/A   Unknown
5:52 AM 43.0 °F 36.8 °F 39.9 °F 89% 29.83 in - SW 11.5 mph - N/A   Unknown
6:52 AM 43.0 °F 36.0 °F 39.9 °F 89% 29.85 in - West 13.8 mph 21.9 mph 0.06 in   Unknown
7:52 AM 43.0 °F 36.8 °F 39.9 °F 89% 29.88 in - WSW 11.5 mph - 0.01 in   Unknown
8:43 AM 43.0 °F 33.8 °F 39.0 °F 86% 29.91 in - West 23.0 mph 29.9 mph 0.02 in   Unknown
8:52 AM 43.0 °F 35.1 °F 39.0 °F 86% 29.90 in - West 17.3 mph 29.9 mph 0.03 in   Unknown
9:52 AM 46.9 °F - 39.0 °F 74% 29.91 in - West 19.6 mph 27.6 mph 0.02 in   Unknown
10:52 AM 48.0 °F - 37.0 °F 66% 29.93 in - West 16.1 mph 24.2 mph N/A   Unknown
11:52 AM 48.9 °F - 36.0 °F 61% 29.93 in - West 18.4 mph 25.3 mph N/A   Unknown
12:52 PM 50.0 °F - 32.0 °F 50% 29.92 in - West 18.4 mph 27.6 mph N/A   Unknown
1:52 PM 48.9 °F - 34.0 °F 56% 29.92 in - West 20.7 mph 27.6 mph N/A   Unknown
2:52 PM 50.0 °F - 34.0 °F 54% 29.91 in - WSW 27.6 mph 35.7 mph N/A   Unknown
3:52 PM 51.1 °F - 34.0 °F 52% 29.91 in - West 24.2 mph 34.5 mph N/A   Unknown
4:52 PM 50.0 °F - 33.1 °F 52% 29.92 in - West 18.4 mph 27.6 mph N/A   Unknown
5:52 PM 48.9 °F - 33.1 °F 54% 29.93 in - WNW 15.0 mph - N/A   Unknown
6:52 PM 46.0 °F 41.4 °F 35.1 °F 66% 29.94 in - WSW 9.2 mph - N/A   Unknown
7:52 PM 44.1 °F 39.0 °F 35.1 °F 71% 29.96 in - SW 9.2 mph - N/A   Unknown
8:52 PM 44.1 °F 39.5 °F 35.1 °F 71% 29.99 in - West 8.1 mph - N/A   Unknown
9:52 PM 42.1 °F 40.2 °F 36.0 °F 79% 30.00 in - SW 3.5 mph - N/A   Unknown
10:52 PM 39.9 °F - 35.1 °F 83% 30.01 in - Calm Calm - N/A   Unknown
11:52 PM 36.0 °F - 34.0 °F 93% 30.01 in - Calm Calm - N/A   Unknown